7 * 24
多渠道服务支持
STARLINK-37095(NORAD编号68237)是美国SpaceX公司星链星座中的低轨通信卫星,属于星链全球互联网星座计划的一部分,旨在通过近地轨道卫星组网为全球提供高速低延迟互联网服务。该卫星运行在近地点约442公里、远地点约448公里的近圆轨道上,轨道倾角97.38度,轨道周期约93.5分钟,每日绕地球运行约15.4圈。作为星链持续扩容的组网卫星之一,它依托SpaceX可复用火箭发射部署,目前处于在轨运行状态,支撑星链网络覆盖扩展,服务包括偏远地区通信、移动互联等场景,同时也成为全球规模最大低轨卫星互联网星座的组成单元。
美国
(US)
| 数据来源 | 国际轨道数据 |
| 星历时间: | 2026-09-13T09:10:22+0800 8小时前 查看轨道信息 |
| 半长轴: | 6840.825km |
| 偏心率: | 0.0001267 |
| 轨道倾角: | 53.158° |
| 近地点辐角 | 106.273° |
| 升交点赤经 | 136.871° |
| 平近点角 | 253.841° |
| 近地点: | 461.821km |
| 远地点: | 463.555km |
| 周期: | 93.847分钟 |
| 每日圈数: | 15.344053 |